Location: Black Swamp Observatory
(41.3920°N, 84.1250°W)
Time: 19:57:28
(UTC-04:00)

Transit 2A Rocket - Pass Details

Date: 22 January 2022
Orbit: 591 x 910 km, 66.7° (Epoch: 20 May)

Event Time Altitude Azimuth Distance (km) Brightness Sun altitude
Exits shadow 05:55:35 37° 223° (SW) 1,179 5.6 -22.5°
Drops below altitude 10° 05:59:21 10° 180° (S) 2,217 7.5 -21.8°
Sets 06:01:42 0° 173° (S) 3,081 8.3 -21.4°
